Temp
8 8 8 9 9 9 9 9 10 11 11 12 11 11 11 11 10 10 9 9 9 9 9 9 9 9 9 9 9 8 8 8 8 8 8 8 7 7 7 7 6 6
8 7 7 8 8 8 9 9 9 10 11 11 11 11 11 11 11 10 9 9 9 9 9 9 9 9 9 9 8 8 8 8 7 7 7 7 7 6 6 6 6 6
8 8 7 7 7 8 8 8 8 9 10 10 11 11 11 11 11 10 10 9 9 9 9 9 9 9 9 8 8 8 8 8 7 7 7 6 6 6 6 6 6 6
9 8 8 7 7 7 7 8 8 8 9 9 9 10 10 11 10 10 10 10 9 9 9 9 9 9 8 8 8 8 8 7 6 6 6 6 5 5 6 6 6 5
9 9 8 8 7 7 7 7 8 8 8 8 8 8 9 10 10 10 10 10 10 9 9 9 9 8 8 8 8 7 7 7 6 6 5 5 5 5 5 5 5 5
9 9 8 8 8 7 7 7 7 7 8 8 7 7 7 8 10 10 10 10 10 10 9 9 8 8 8 8 8 7 7 7 7 6 5 5 5 5 5 5 5 5
8 9 8 8 8 8 8 7 7 7 7 7 7 7 7 8 8 9 9 10 10 10 9 8 8 8 8 8 8 7 7 7 6 6 6 5 5 5 5 5 5 4
7 8 8 8 8 8 8 8 7 7 7 7 7 7 7 7 8 8 9 9 10 9 9 8 8 8 8 8 8 7 7 7 6 6 6 5 5 5 5 5 4 4
6 6 7 7 8 8 8 8 8 8 7 6 7 7 7 7 8 8 8 9 9 8 8 7 7 8 8 8 8 8 8 7 6 6 6 6 5 5 4 4 4 4
5 5 6 6 7 8 8 8 8 8 7 7 6 7 7 7 8 8 8 9 9 8 8 8 8 8 8 8 8 8 8 7 6 6 5 5 6 5 4 4 4 4
5 5 5 6 6 7 8 8 8 8 7 7 6 6 6 6 7 7 8 9 9 9 9 9 9 8 8 7 7 7 8 7 6 5 5 5 5 4 4 4 4 4
4 4 4 5 6 6 6 7 7 7 7 7 7 6 6 6 6 6 6 7 8 9 9 10 9 8 7 7 7 8 8 7 6 5 5 5 4 4 4 3 3 4
3 3 4 4 5 6 5 5 5 6 6 7 7 7 6 6 6 6 6 7 7 8 9 10 9 8 7 7 7 8 7 6 6 5 5 4 4 4 3 3 3 3
2 2 2 2 2 3 3 3 3 4 5 5 6 6 6 6 6 6 6 6 6 7 8 9 8 7 7 7 7 7 6 6 6 5 5 4 4 3 3 3 3 3
1 1 1 1 0 1 2 2 2 3 3 4 5 5 5 5 5 5 5 6 6 6 7 7 6 6 6 7 7 6 6 6 6 6 5 4 4 3 3 3 3 3
0 -0 -0 -0 -1 -1 0 1 1 1 2 3 4 4 5 5 5 5 5 5 6 6 6 5 5 6 6 6 7 6 6 5 6 5 5 4 3 3 3 3 3 3
-0 -1 -1 -1 -1 -1 -1 -0 -0 -0 1 2 2 3 4 4 4 4 5 5 5 5 5 5 5 5 5 6 6 6 5 5 5 4 4 3 3 3 3 3 3 3
-1 -1 -1 -2 -2 -2 -2 -1 -1 -1 0 1 2 3 3 4 4 4 4 4 5 5 5 5 5 5 5 5 5 5 4 4 4 4 3 3 3 3 3 3 4 4
-2 -2 -2 -2 -2 -2 -2 -2 -2 -1 -1 0 1 2 2 3 4 3 3 4 4 4 5 5 5 5 4 4 4 4 3 3 3 3 3 3 3 3 3 4 4 3
-2 -2 -2 -2 -3 -3 -2 -2 -2 -2 -1 -0 1 2 2 2 3 3 3 3 3 4 4 4 4 5 5 4 3 3 3 3 2 2 3 3 3 4 4 4 4 3
-2 -2 -3 -3 -3 -3 -2 -2 -2 -2 -1 -1 0 1 2 2 3 3 3 3 3 3 3 3 4 4 4 3 3 2 2 2 2 2 3 3 3 3 4 3 3 3
-3 -3 -3 -3 -3 -3 -3 -2 -2 -2 -2 -1 -0 0 1 1 1 2 3 2 2 2 2 3 4 4 3 3 2 2 2 2 2 2 3 3 3 3 3 3 2 2
-3 -3 -3 -3 -3 -3 -3 -3 -3 -2 -2 -1 -1 -0 0 1 1 2 3 3 2 2 2 3 3 3 3 2 2 2 2 2 2 2 2 2 3 2 2 2 2 2
-3 -3 -4 -4 -4 -4 -3 -3 -3 -3 -2 -2 -1 -0 0 1 1 2 2 2 2 2 2 2 2 2 2 2 2 2 2 2 2 3 2 2 2 2 2 2 2 2
-4 -4 -4 -4 -4 -4 -3 -3 -3 -3 -2 -1 -1 -0 0 0 1 1 2 2 2 2 2 2 2 2 2 2 1 1 1 2 2 2 2 2 2 2 2 2 2 2
-5 -5 -4 -4 -4 -4 -4 -4 -3 -3 -2 -1 -1 -0 0 0 0 1 1 2 1 1 1 1 2 2 2 1 1 1 2 2 2 2 2 2 2 3 3 3 3 3
Height
1439 1440 1442 1443 1445 1447 1450 1452 1454 1455 1456 1458 1462 1466 1471 1477 1481 1484 1486 1489 1491 1494 1497 1499 1501 1503 1504 1506 1508 1509 1511 1513 1515 1517 1519 1522 1524 1527 1529 1532 1535 1537
1435 1437 1438 1440 1442 1444 1446 1449 1451 1452 1454 1457 1459 1461 1465 1471 1476 1479 1482 1485 1488 1491 1494 1496 1498 1499 1500 1502 1504 1505 1508 1510 1511 1514 1516 1519 1521 1524 1527 1530 1532 1534
1431 1433 1435 1436 1438 1440 1443 1446 1448 1450 1452 1453 1455 1456 1458 1464 1469 1473 1478 1482 1484 1487 1490 1492 1493 1495 1496 1498 1500 1502 1504 1506 1508 1510 1513 1516 1518 1521 1523 1526 1529 1532
1427 1428 1431 1433 1435 1437 1439 1441 1443 1445 1448 1449 1451 1453 1454 1458 1463 1467 1472 1477 1480 1483 1486 1488 1489 1491 1492 1494 1497 1499 1500 1502 1505 1507 1510 1512 1515 1517 1520 1522 1525 1528
1423 1424 1427 1429 1431 1433 1435 1437 1439 1441 1443 1446 1448 1450 1451 1453 1457 1461 1466 1471 1475 1478 1481 1484 1485 1487 1489 1491 1493 1495 1497 1499 1502 1504 1506 1508 1511 1513 1516 1519 1522 1524
1419 1420 1422 1424 1427 1429 1431 1433 1435 1437 1439 1442 1444 1446 1447 1449 1452 1455 1460 1465 1470 1473 1476 1479 1481 1484 1486 1489 1491 1492 1494 1496 1498 1500 1502 1505 1508 1510 1512 1515 1518 1520
1414 1416 1418 1420 1422 1425 1427 1430 1432 1434 1435 1438 1440 1441 1443 1446 1448 1451 1454 1459 1465 1469 1472 1475 1478 1481 1483 1486 1487 1489 1490 1492 1495 1497 1499 1501 1504 1507 1509 1512 1514 1517
1409 1411 1414 1416 1418 1420 1423 1426 1428 1430 1432 1434 1435 1437 1439 1442 1445 1447 1450 1455 1460 1465 1469 1472 1474 1477 1479 1481 1483 1484 1486 1488 1491 1494 1496 1498 1501 1504 1507 1509 1511 1513
1405 1407 1409 1411 1413 1416 1418 1421 1424 1426 1428 1430 1432 1434 1435 1438 1441 1444 1448 1451 1456 1460 1464 1467 1470 1473 1475 1477 1479 1480 1482 1485 1487 1490 1493 1495 1497 1500 1503 1506 1508 1510
1401 1403 1404 1406 1408 1411 1413 1416 1418 1421 1424 1427 1428 1430 1432 1435 1437 1441 1444 1448 1451 1456 1460 1463 1466 1468 1471 1473 1475 1477 1479 1481 1484 1487 1489 1491 1493 1496 1499 1503 1505 1508
1396 1398 1399 1401 1403 1406 1409 1411 1413 1415 1419 1423 1425 1428 1430 1432 1435 1438 1441 1444 1448 1452 1457 1460 1462 1464 1466 1469 1471 1473 1475 1478 1481 1484 1486 1488 1491 1493 1497 1500 1503 1505
1391 1392 1394 1396 1399 1401 1404 1406 1408 1410 1413 1418 1421 1425 1427 1430 1433 1435 1438 1441 1444 1448 1452 1455 1457 1460 1463 1465 1467 1469 1471 1474 1478 1481 1483 1486 1488 1491 1494 1497 1500 1503
1386 1388 1389 1392 1394 1397 1400 1402 1404 1406 1408 1412 1416 1420 1424 1427 1429 1433 1435 1438 1441 1443 1446 1450 1452 1455 1458 1461 1462 1464 1467 1470 1474 1477 1479 1483 1485 1488 1491 1494 1497 1500
1383 1385 1386 1388 1390 1393 1396 1398 1401 1403 1404 1407 1411 1415 1419 1422 1425 1429 1432 1435 1437 1439 1441 1445 1447 1450 1453 1455 1458 1460 1463 1467 1470 1472 1475 1478 1482 1485 1489 1492 1494 1497
1381 1382 1383 1385 1387 1389 1391 1394 1397 1399 1401 1404 1407 1410 1414 1418 1421 1424 1428 1431 1433 1435 1437 1440 1443 1446 1448 1451 1453 1456 1460 1463 1466 1469 1472 1475 1479 1482 1486 1489 1491 1494
1378 1379 1381 1382 1384 1386 1388 1390 1393 1396 1398 1400 1403 1406 1410 1413 1416 1420 1424 1426 1429 1431 1433 1436 1439 1442 1445 1448 1450 1453 1456 1459 1462 1465 1469 1472 1476 1479 1482 1485 1488 1491
1375 1377 1378 1380 1381 1383 1385 1387 1389 1392 1394 1397 1400 1403 1406 1409 1412 1415 1419 1422 1425 1428 1430 1433 1435 1438 1441 1444 1447 1450 1453 1456 1459 1462 1466 1469 1473 1476 1479 1482 1485 1488
1372 1374 1375 1377 1379 1381 1383 1385 1387 1389 1391 1394 1397 1399 1402 1405 1408 1411 1414 1418 1421 1423 1427 1430 1433 1436 1439 1442 1444 1447 1450 1454 1457 1460 1463 1467 1470 1473 1476 1480 1482 1485
1369 1371 1373 1375 1376 1378 1380 1382 1384 1386 1388 1391 1393 1396 1399 1402 1405 1408 1411 1414 1417 1420 1423 1426 1430 1434 1437 1439 1442 1445 1448 1452 1456 1459 1461 1464 1467 1470 1473 1476 1479 1483
1367 1368 1371 1373 1374 1375 1377 1379 1381 1383 1385 1388 1391 1394 1395 1398 1402 1406 1408 1411 1414 1417 1420 1423 1427 1431 1434 1436 1439 1442 1446 1450 1453 1456 1459 1462 1465 1468 1470 1473 1477 1480
1364 1366 1369 1371 1372 1373 1374 1376 1379 1381 1383 1386 1389 1391 1393 1395 1399 1403 1405 1407 1411 1414 1418 1421 1424 1427 1430 1433 1436 1440 1444 1447 1450 1454 1457 1460 1463 1465 1468 1471 1475 1478
1362 1364 1366 1368 1370 1371 1372 1374 1376 1378 1381 1384 1386 1390 1392 1393 1397 1400 1403 1405 1408 1412 1415 1418 1421 1424 1427 1430 1434 1437 1441 1444 1447 1451 1454 1457 1460 1463 1466 1469 1472 1475
1359 1362 1364 1365 1367 1368 1369 1371 1373 1376 1379 1382 1385 1388 1390 1391 1394 1398 1400 1403 1406 1409 1412 1415 1418 1420 1423 1427 1431 1434 1437 1440 1444 1448 1451 1454 1457 1461 1463 1466 1469 1472
1357 1359 1361 1363 1364 1366 1367 1369 1371 1374 1376 1380 1383 1385 1387 1390 1392 1394 1397 1400 1403 1406 1409 1411 1414 1417 1420 1424 1428 1431 1434 1437 1440 1444 1447 1451 1454 1458 1461 1463 1466 1469
1355 1357 1359 1360 1362 1364 1366 1367 1369 1372 1374 1378 1381 1383 1385 1388 1390 1392 1395 1397 1400 1403 1406 1409 1411 1414 1417 1421 1425 1428 1431 1434 1437 1440 1444 1448 1451 1455 1458 1460 1463 1466
1353 1355 1356 1358 1360 1362 1364 1366 1368 1370 1373 1375 1378 1381 1383 1386 1388 1390 1392 1395 1398 1400 1403 1406 1408 1411 1414 1418 1422 1425 1429 1432 1435 1437 1441 1445 1448 1452 1455 1457 1460 1463
Wind_Speed
34 38 39 39 38 37 37 38 38 34 33 39 45 47 49 49 47 43 42 42 42 42 42 42 41 40 38 36 38 42 44 44 44 44 43 40 39 40 38 36 35 33
35 37 40 42 42 41 41 41 39 36 34 35 38 40 44 50 50 47 42 41 42 42 43 44 44 43 40 37 38 41 43 44 44 43 43 41 40 39 36 35 36 35
37 37 40 43 45 44 44 44 43 40 38 39 41 41 43 48 51 48 42 40 41 43 45 45 43 42 41 38 39 42 44 45 44 42 41 40 39 38 36 36 37 36
39 39 39 41 45 46 45 45 45 45 44 44 46 46 47 48 49 48 45 42 42 43 45 46 44 42 41 39 39 42 44 44 42 41 40 40 39 38 37 37 37 36
41 41 40 41 43 45 45 45 45 44 44 43 45 47 51 50 47 49 51 47 43 42 43 47 48 44 38 35 36 39 41 42 41 41 41 41 41 40 39 39 38 39
42 42 42 42 43 43 45 46 45 43 42 41 41 43 48 50 49 51 54 51 46 43 43 46 48 43 36 33 35 37 39 41 41 41 41 41 41 42 42 41 40 40
42 43 43 43 43 42 43 44 44 44 42 41 40 40 42 45 45 47 51 52 50 46 44 45 44 41 37 35 36 36 37 39 40 40 40 41 41 42 43 42 41 39
40 42 43 45 46 45 45 44 44 44 43 42 40 40 41 41 41 41 42 47 50 48 44 43 41 39 37 36 35 35 36 38 39 39 39 40 41 42 43 42 41 40
38 41 43 44 47 49 49 48 46 45 45 44 42 42 42 40 40 39 36 38 43 45 44 41 39 38 37 36 35 34 35 38 39 39 40 40 40 41 42 42 42 41
38 40 42 44 46 48 50 50 50 48 46 45 44 45 44 42 40 38 36 34 37 40 40 39 39 39 38 38 38 36 34 35 38 40 40 40 40 41 41 41 41 40
40 40 42 43 45 47 48 49 50 50 48 47 46 46 47 46 43 40 39 38 38 38 38 39 41 40 38 37 37 36 34 35 38 39 40 40 39 39 39 39 39 37
40 41 42 42 43 45 47 48 50 50 49 48 47 47 47 47 45 43 41 39 38 37 37 40 43 41 38 36 35 36 36 36 37 37 37 37 36 36 37 36 35 34
40 41 42 42 41 42 45 47 49 50 50 48 47 47 47 46 45 44 42 41 40 40 40 41 42 41 39 38 37 38 38 37 36 36 35 35 35 36 35 34 32 31
40 41 41 41 39 40 42 45 48 49 50 49 46 46 46 46 45 43 42 41 42 43 44 44 43 41 39 39 39 38 37 36 36 36 35 35 35 34 33 32 31 30
39 40 41 39 37 38 40 43 46 48 49 47 46 45 45 45 45 42 41 41 43 45 46 45 43 40 39 40 39 38 36 36 36 36 36 35 35 34 33 32 31 30
37 39 39 37 36 36 38 41 44 46 47 46 46 45 44 44 44 42 41 41 43 45 46 45 42 41 40 39 39 37 37 37 37 37 36 35 34 34 33 33 32 31
35 37 36 35 34 34 35 39 42 44 46 45 44 43 43 43 42 42 42 42 42 44 44 43 42 42 41 40 39 38 37 38 38 37 36 35 35 34 33 33 32 31
33 35 35 34 33 33 34 37 40 42 44 44 43 43 43 42 41 41 42 42 42 42 42 42 41 41 40 39 39 38 38 37 37 36 36 36 35 34 33 33 33 32
31 32 32 32 32 31 33 36 38 41 43 43 43 42 41 40 41 42 41 41 42 42 41 41 39 39 39 39 39 38 37 36 36 36 37 36 35 34 34 34 33 32
30 29 28 28 28 30 33 36 37 39 40 41 42 42 41 40 40 41 41 40 40 41 41 40 39 39 40 40 40 38 36 36 36 36 36 35 34 34 34 34 32 31
28 27 27 27 28 30 33 35 36 37 38 39 40 40 41 40 39 39 40 40 39 39 39 39 40 41 41 41 40 38 36 36 37 37 36 35 34 34 33 31 30 29
28 28 28 28 28 31 33 34 36 37 37 38 39 38 39 39 38 38 39 39 39 39 39 39 41 42 42 41 40 38 38 38 38 38 37 36 35 34 32 29 28 28
29 29 29 29 30 31 33 34 35 36 37 38 38 37 38 38 37 36 37 39 39 39 39 41 42 42 42 41 40 39 40 40 40 39 38 36 35 33 30 29 29 29
28 28 28 29 31 32 33 34 35 34 35 35 35 35 36 36 36 35 36 38 39 39 40 41 41 42 42 41 40 41 41 42 41 40 38 36 34 32 30 30 30 31
27 27 28 29 31 32 33 33 33 33 33 32 32 32 34 34 34 34 35 37 39 40 41 40 41 42 42 41 40 41 42 42 41 40 38 36 34 32 32 32 32 33
27 28 28 29 31 32 32 31 31 31 31 32 32 32 32 32 32 33 35 37 40 40 40 40 41 42 41 40 39 41 42 42 41 39 38 36 34 34 34 34 34 34
Wind_Direction
233 228 223 220 220 220 220 219 215 214 214 213 216 223 226 230 237 236 228 223 220 221 226 231 233 231 229 226 225 225 222 219 218 218 219 220 222 223 222 221 222 222
238 234 229 225 223 222 220 220 219 216 216 215 215 219 220 222 231 237 232 225 222 224 228 230 231 230 230 229 227 225 223 222 221 221 222 222 222 222 220 220 221 220
238 237 234 231 228 227 224 223 224 224 223 221 217 217 219 218 223 230 230 227 225 226 230 231 229 229 230 230 228 225 224 222 221 221 222 223 222 221 218 219 220 220
238 236 236 235 232 232 229 226 227 227 229 229 224 222 222 217 217 223 226 228 227 226 230 233 232 231 230 228 226 225 224 223 222 222 220 220 220 218 217 218 218 218
241 238 235 234 233 233 232 229 227 227 228 231 231 228 223 216 214 217 220 226 228 227 229 232 233 233 230 229 229 228 225 223 223 222 220 218 217 215 215 215 216 217
242 240 236 233 232 233 232 228 226 226 226 229 231 230 225 218 214 214 217 222 227 229 230 231 233 234 232 231 232 231 228 225 222 221 220 218 216 214 212 212 214 217
241 240 237 234 231 229 229 229 228 227 226 226 227 226 223 221 218 217 216 217 222 228 231 231 233 234 232 230 229 229 228 225 222 220 219 218 215 213 212 212 213 216
241 240 237 234 232 229 228 229 231 231 228 224 223 221 220 219 220 219 215 216 222 227 229 229 229 230 231 230 228 229 228 225 221 220 218 216 214 212 212 213 213 215
243 240 237 234 232 232 232 231 231 232 230 225 219 218 217 216 218 218 215 217 222 224 226 227 227 228 230 231 229 229 227 223 219 218 218 216 214 213 213 213 214 216
246 241 238 234 231 231 233 233 232 230 230 227 221 218 217 215 213 212 209 209 214 219 224 227 228 229 231 232 230 226 225 222 219 218 217 216 215 214 213 214 216 217
247 244 240 237 232 230 230 233 233 230 227 226 224 222 220 218 215 211 208 208 212 216 221 226 229 231 232 232 228 224 223 223 221 219 218 216 216 216 216 217 218 218
245 244 243 240 236 232 229 229 233 233 230 228 227 227 226 225 224 222 218 215 215 215 219 227 233 233 230 227 224 221 223 223 220 220 219 217 217 217 217 218 218 216
243 243 244 242 238 234 231 228 230 233 232 230 229 229 230 230 229 229 226 221 217 215 217 225 231 231 226 222 220 220 221 220 218 217 216 216 217 216 215 214 213 212
243 242 242 241 237 234 231 229 228 231 232 231 229 230 231 231 230 229 227 224 220 217 218 222 227 228 224 221 220 219 219 217 216 215 214 213 214 213 210 208 209 211
239 239 239 239 236 232 230 229 228 230 231 231 230 230 229 229 228 227 226 225 223 220 221 222 225 227 225 222 220 218 216 215 214 215 213 211 209 207 205 205 209 214
237 237 237 237 237 233 230 229 228 228 230 230 229 229 228 227 226 224 223 224 224 224 224 223 222 222 222 222 221 219 216 213 212 212 211 208 204 202 202 206 211 214
235 235 236 236 236 234 231 229 227 227 229 230 229 228 227 226 226 224 222 222 223 225 227 225 221 218 217 218 219 218 216 213 211 209 207 204 201 201 205 209 211 212
236 236 236 235 234 234 231 229 227 226 227 229 229 227 225 224 225 225 223 222 222 223 225 225 222 219 217 217 217 216 214 212 210 207 203 201 201 203 207 210 211 212
236 234 232 231 232 234 232 228 226 226 227 228 228 228 226 222 222 224 223 221 222 222 222 222 221 219 217 216 215 214 212 209 207 205 202 201 202 204 208 210 212 214
229 226 224 228 232 232 229 227 226 225 226 227 227 227 226 222 221 223 224 223 223 222 221 219 218 218 217 215 213 212 209 206 205 204 204 204 205 207 210 212 214 215
226 226 228 233 234 229 225 224 225 224 225 226 226 226 226 225 221 221 224 225 223 221 220 219 218 218 217 215 212 209 206 204 204 204 205 206 208 211 214 216 217 218
233 233 233 234 230 225 223 223 223 224 224 225 226 226 226 226 222 221 224 227 225 221 219 218 218 218 217 214 211 207 204 203 204 204 205 208 211 213 215 217 218 219
235 235 234 232 227 223 222 222 222 223 224 225 226 225 225 225 223 222 225 228 227 224 220 218 218 217 215 212 209 205 204 203 203 204 206 209 212 215 216 216 218 220
233 234 234 231 226 223 222 222 222 222 223 225 226 226 226 225 223 223 225 226 227 225 222 220 218 216 215 212 208 205 204 203 203 205 207 211 213 215 216 217 218 219
233 233 233 230 227 225 223 223 222 221 221 223 225 227 227 226 224 224 225 226 226 225 223 220 219 218 215 212 208 206 204 204 205 207 209 211 213 215 216 217 219 219
233 232 232 231 228 226 225 225 224 222 220 221 223 225 226 226 224 224 225 226 225 223 220 219 220 220 216 211 208 207 205 205 208 209 210 212 214 216 218 219 219 219